Location: Killam
(52.7910°N, 111.8608°W)
Time: 11:32:35
(UTC+00:00)

FENGYUN 1C DEB - Pass Details

Date: 03 June 2024
Orbit: 795 x 992 km, 98.4° (Epoch: 16 June)

Event Time Altitude Azimuth Distance (km) Brightness Sun altitude
Rises 05:57:38 0° 15° (NNE) 3,342 ? -12.4°
Reaches altitude 10° 05:59:57 10° 17° (NNE) 2,423 ? -12.5°
Maximum altitude 06:05:19 82° 105° (ESE) 857 ? -12.8°
Enters shadow 06:10:18 13° 193° (SSW) 2,286 ? -13.1°
